Year,Month,Day,Hour,Minute,Value (Times are PST for windgust in km/hr)
2008,06,10,00,00,0.00
2008,06,10,00,01,0.00
2008,06,10,00,02,0.00
2008,06,10,00,03,0.00
2008,06,10,00,04,0.00
2008,06,10,00,05,0.00
2008,06,10,00,06,0.00
2008,06,10,00,07,1.60
2008,06,10,00,08,1.60
2008,06,10,00,09,0.00
2008,06,10,00,10,1.60
2008,06,10,00,11,0.00
2008,06,10,00,12,0.00
2008,06,10,00,13,0.00
2008,06,10,00,14,0.00
2008,06,10,00,15,0.00
2008,06,10,00,16,0.00
2008,06,10,00,17,0.00
2008,06,10,00,18,0.00
2008,06,10,00,19,0.00
2008,06,10,00,20,0.00
2008,06,10,00,21,0.00
2008,06,10,00,22,1.60
2008,06,10,00,23,3.20
2008,06,10,00,24,1.60
2008,06,10,00,25,3.20
2008,06,10,00,26,1.60
2008,06,10,00,27,1.60
2008,06,10,00,28,0.00
2008,06,10,00,29,0.00
2008,06,10,00,30,0.00
2008,06,10,00,31,0.00
2008,06,10,00,32,1.60
2008,06,10,00,33,0.00
2008,06,10,00,34,0.00
2008,06,10,00,35,1.60
2008,06,10,00,36,0.00
2008,06,10,00,37,0.00
2008,06,10,00,38,0.00
2008,06,10,00,39,1.60
2008,06,10,00,40,0.00
2008,06,10,00,41,0.00
2008,06,10,00,42,0.00
2008,06,10,00,43,1.60
2008,06,10,00,44,1.60
2008,06,10,00,45,1.60
2008,06,10,00,46,0.00
2008,06,10,00,47,0.00
2008,06,10,00,48,0.00
2008,06,10,00,49,0.00
2008,06,10,00,50,0.00
2008,06,10,00,51,1.60
2008,06,10,00,52,1.60
2008,06,10,00,53,0.00
2008,06,10,00,54,4.80
2008,06,10,00,55,3.20
2008,06,10,00,56,0.00
2008,06,10,00,57,1.60
2008,06,10,00,58,0.00
2008,06,10,00,59,0.00
2008,06,10,01,00,0.00
2008,06,10,01,01,0.00
2008,06,10,01,02,0.00
2008,06,10,01,03,1.60
2008,06,10,01,04,0.00
2008,06,10,01,05,0.00
2008,06,10,01,06,1.60
2008,06,10,01,07,0.00
2008,06,10,01,08,0.00
2008,06,10,01,09,1.60
2008,06,10,01,10,0.00
2008,06,10,01,11,3.20
2008,06,10,01,12,1.60
2008,06,10,01,13,0.00
2008,06,10,01,14,6.40
2008,06,10,01,15,6.40
2008,06,10,01,16,4.80
2008,06,10,01,17,9.60
2008,06,10,01,18,4.80
2008,06,10,01,19,8.10
2008,06,10,01,20,4.80
2008,06,10,01,21,3.20
2008,06,10,01,22,6.40
2008,06,10,01,23,4.80
2008,06,10,01,24,1.60
2008,06,10,01,25,3.20
2008,06,10,01,26,3.20
2008,06,10,01,27,1.60
2008,06,10,01,28,1.60
2008,06,10,01,29,1.60
2008,06,10,01,30,1.60
2008,06,10,01,31,3.20
2008,06,10,01,32,3.20
2008,06,10,01,33,4.80
2008,06,10,01,34,3.20
2008,06,10,01,35,1.60
2008,06,10,01,36,3.20
2008,06,10,01,37,4.80
2008,06,10,01,38,3.20
2008,06,10,01,39,4.80
2008,06,10,01,40,4.80
2008,06,10,01,41,4.80
2008,06,10,01,42,3.20
2008,06,10,01,43,3.20
2008,06,10,01,44,3.20
2008,06,10,01,45,4.80
2008,06,10,01,46,4.80
2008,06,10,01,47,4.80
2008,06,10,01,48,4.80
2008,06,10,01,49,3.20
2008,06,10,01,50,3.20
2008,06,10,01,51,4.80
2008,06,10,01,52,6.40
2008,06,10,01,53,6.40
2008,06,10,01,54,4.80
2008,06,10,01,55,8.10
2008,06,10,01,56,9.60
2008,06,10,01,57,3.20
2008,06,10,01,58,4.80
2008,06,10,01,59,1.60
2008,06,10,02,00,4.80
2008,06,10,02,01,3.20
2008,06,10,02,02,3.20
2008,06,10,02,03,6.40
2008,06,10,02,04,4.80
2008,06,10,02,05,6.40
2008,06,10,02,06,4.80
2008,06,10,02,07,4.80
2008,06,10,02,08,8.10
2008,06,10,02,09,3.20
2008,06,10,02,10,4.80
2008,06,10,02,11,3.20
2008,06,10,02,12,4.80
2008,06,10,02,13,3.20
2008,06,10,02,14,3.20
2008,06,10,02,15,1.60
2008,06,10,02,16,3.20
2008,06,10,02,17,1.60
2008,06,10,02,18,3.20
2008,06,10,02,19,1.60
2008,06,10,02,20,0.00
2008,06,10,02,21,0.00
2008,06,10,02,22,0.00
2008,06,10,02,23,1.60
2008,06,10,02,24,1.60
2008,06,10,02,25,3.20
2008,06,10,02,26,1.60
2008,06,10,02,27,0.00
2008,06,10,02,28,3.20
2008,06,10,02,29,3.20
2008,06,10,02,30,4.80
2008,06,10,02,31,6.40
2008,06,10,02,32,4.80
2008,06,10,02,33,8.10
2008,06,10,02,34,4.80
2008,06,10,02,35,4.80
2008,06,10,02,36,4.80
2008,06,10,02,37,4.80
2008,06,10,02,38,3.20
2008,06,10,02,39,3.20
2008,06,10,02,40,3.20
2008,06,10,02,41,3.20
2008,06,10,02,42,4.80
2008,06,10,02,43,8.10
2008,06,10,02,44,3.20
2008,06,10,02,45,3.20
2008,06,10,02,46,3.20
2008,06,10,02,47,3.20
2008,06,10,02,48,3.20
2008,06,10,02,49,4.80
2008,06,10,02,50,3.20
2008,06,10,02,51,4.80
2008,06,10,02,52,3.20
2008,06,10,02,53,3.20
2008,06,10,02,54,3.20
2008,06,10,02,55,1.60
2008,06,10,02,56,1.60
2008,06,10,02,57,1.60
2008,06,10,02,58,0.00
2008,06,10,02,59,1.60
2008,06,10,03,00,1.60
2008,06,10,03,01,1.60
2008,06,10,03,02,1.60
2008,06,10,03,03,3.20
2008,06,10,03,04,1.60
2008,06,10,03,05,1.60
2008,06,10,03,06,4.80
2008,06,10,03,07,3.20
2008,06,10,03,08,4.80
2008,06,10,03,09,4.80
2008,06,10,03,10,3.20
2008,06,10,03,11,3.20
2008,06,10,03,12,6.40
2008,06,10,03,13,6.40
2008,06,10,03,14,6.40
2008,06,10,03,15,3.20
2008,06,10,03,16,4.80
2008,06,10,03,17,8.10
2008,06,10,03,18,6.40
2008,06,10,03,19,8.10
2008,06,10,03,20,8.10
2008,06,10,03,21,4.80
2008,06,10,03,22,6.40
2008,06,10,03,23,6.40
2008,06,10,03,24,8.10
2008,06,10,03,25,8.10
2008,06,10,03,26,9.60
2008,06,10,03,27,8.10
2008,06,10,03,28,6.40
2008,06,10,03,29,6.40
2008,06,10,03,30,8.10
2008,06,10,03,31,6.40
2008,06,10,03,32,6.40
2008,06,10,03,33,4.80
2008,06,10,03,34,9.60
2008,06,10,03,35,4.80
2008,06,10,03,36,6.40
2008,06,10,03,37,6.40
2008,06,10,03,38,9.60
2008,06,10,03,39,8.10
2008,06,10,03,40,6.40
2008,06,10,03,41,6.40
2008,06,10,03,42,4.80
2008,06,10,03,43,3.20
2008,06,10,03,44,6.40
2008,06,10,03,45,4.80
2008,06,10,03,46,8.10
2008,06,10,03,47,3.20
2008,06,10,03,48,4.80
2008,06,10,03,49,6.40
2008,06,10,03,50,4.80
2008,06,10,03,51,8.10
2008,06,10,03,52,3.20
2008,06,10,03,53,9.60
2008,06,10,03,54,8.10
2008,06,10,03,55,8.10
2008,06,10,03,56,3.20
2008,06,10,03,57,1.60
2008,06,10,03,58,6.40
2008,06,10,03,59,6.40
2008,06,10,04,00,4.80
2008,06,10,04,01,8.10
2008,06,10,04,02,6.40
2008,06,10,04,03,0.00
2008,06,10,04,04,0.00
2008,06,10,04,05,4.80
2008,06,10,04,06,1.60
2008,06,10,04,07,1.60
2008,06,10,04,08,1.60
2008,06,10,04,09,3.20
2008,06,10,04,10,1.60
2008,06,10,04,11,1.60
2008,06,10,04,12,3.20
2008,06,10,04,13,1.60
2008,06,10,04,14,1.60
2008,06,10,04,15,3.20
2008,06,10,04,16,1.60
2008,06,10,04,17,0.00
2008,06,10,04,18,0.00
2008,06,10,04,19,1.60
2008,06,10,04,20,1.60
2008,06,10,04,21,1.60
2008,06,10,04,22,1.60
2008,06,10,04,23,1.60
2008,06,10,04,24,1.60
2008,06,10,04,25,0.00
2008,06,10,04,26,0.00
2008,06,10,04,27,0.00
2008,06,10,04,28,0.00
2008,06,10,04,29,0.00
2008,06,10,04,30,0.00
2008,06,10,04,31,0.00
2008,06,10,04,32,0.00
2008,06,10,04,33,0.00
2008,06,10,04,34,0.00
2008,06,10,04,35,0.00
2008,06,10,04,36,0.00
2008,06,10,04,37,0.00
2008,06,10,04,38,0.00
2008,06,10,04,39,0.00
2008,06,10,04,40,0.00
2008,06,10,04,41,0.00
2008,06,10,04,42,0.00
2008,06,10,04,43,0.00
2008,06,10,04,44,0.00
2008,06,10,04,45,0.00
2008,06,10,04,46,1.60
2008,06,10,04,47,0.00
2008,06,10,04,48,0.00
2008,06,10,04,49,0.00
2008,06,10,04,50,0.00
2008,06,10,04,51,0.00
2008,06,10,04,52,0.00
2008,06,10,04,53,0.00
2008,06,10,04,54,0.00
2008,06,10,04,55,0.00
2008,06,10,04,56,0.00
2008,06,10,04,57,1.60
2008,06,10,04,58,1.60
2008,06,10,04,59,0.00
2008,06,10,05,00,0.00
2008,06,10,05,01,0.00
2008,06,10,05,02,0.00
2008,06,10,05,03,0.00
2008,06,10,05,04,0.00
2008,06,10,05,05,0.00
2008,06,10,05,06,0.00
2008,06,10,05,07,0.00
2008,06,10,05,08,0.00
2008,06,10,05,09,0.00
2008,06,10,05,10,0.00
2008,06,10,05,11,0.00
2008,06,10,05,12,0.00
2008,06,10,05,13,1.60
2008,06,10,05,14,0.00
2008,06,10,05,15,0.00
2008,06,10,05,16,0.00
2008,06,10,05,17,0.00
2008,06,10,05,18,0.00
2008,06,10,05,19,0.00
2008,06,10,05,20,0.00
2008,06,10,05,21,0.00
2008,06,10,05,22,0.00
2008,06,10,05,23,0.00
2008,06,10,05,24,0.00
2008,06,10,05,25,0.00
2008,06,10,05,26,0.00
2008,06,10,05,27,0.00
2008,06,10,05,28,0.00
2008,06,10,05,29,0.00
2008,06,10,05,30,0.00
2008,06,10,05,31,0.00
2008,06,10,05,32,0.00
2008,06,10,05,33,0.00
2008,06,10,05,34,0.00
2008,06,10,05,35,0.00
2008,06,10,05,36,0.00
2008,06,10,05,37,0.00
2008,06,10,05,38,0.00
2008,06,10,05,39,0.00
2008,06,10,05,40,0.00
2008,06,10,05,41,0.00
2008,06,10,05,42,0.00
2008,06,10,05,43,1.60
2008,06,10,05,44,1.60
2008,06,10,05,45,1.60
2008,06,10,05,46,0.00
2008,06,10,05,47,0.00
2008,06,10,05,48,0.00
2008,06,10,05,49,0.00
2008,06,10,05,50,0.00
2008,06,10,05,51,0.00
2008,06,10,05,52,0.00
2008,06,10,05,53,0.00
2008,06,10,05,54,0.00
2008,06,10,05,55,0.00
2008,06,10,05,56,0.00
2008,06,10,05,57,0.00
2008,06,10,05,58,1.60
2008,06,10,05,59,0.00
2008,06,10,06,00,0.00
2008,06,10,06,01,0.00
2008,06,10,06,02,0.00
2008,06,10,06,03,0.00
2008,06,10,06,04,0.00
2008,06,10,06,05,3.20
2008,06,10,06,06,1.60
2008,06,10,06,07,0.00
2008,06,10,06,08,0.00
2008,06,10,06,09,3.20
2008,06,10,06,10,3.20
2008,06,10,06,11,1.60
2008,06,10,06,12,0.00
2008,06,10,06,13,0.00
2008,06,10,06,14,0.00
2008,06,10,06,15,0.00
2008,06,10,06,16,0.00
2008,06,10,06,17,0.00
2008,06,10,06,18,0.00
2008,06,10,06,19,0.00
2008,06,10,06,20,0.00
2008,06,10,06,21,0.00
2008,06,10,06,22,0.00
2008,06,10,06,23,0.00
2008,06,10,06,24,0.00
2008,06,10,06,25,0.00
2008,06,10,06,26,0.00
2008,06,10,06,27,1.60
2008,06,10,06,28,0.00
2008,06,10,06,29,0.00
2008,06,10,06,30,0.00
2008,06,10,06,31,0.00
2008,06,10,06,32,0.00
2008,06,10,06,33,0.00
2008,06,10,06,34,0.00
2008,06,10,06,35,0.00
2008,06,10,06,36,0.00
2008,06,10,06,37,0.00
2008,06,10,06,38,0.00
2008,06,10,06,39,0.00
2008,06,10,06,40,1.60
2008,06,10,06,41,1.60
2008,06,10,06,42,1.60
2008,06,10,06,43,0.00
2008,06,10,06,44,0.00
2008,06,10,06,45,0.00
2008,06,10,06,46,1.60
2008,06,10,06,47,0.00
2008,06,10,06,48,1.60
2008,06,10,06,49,0.00
2008,06,10,06,50,1.60
2008,06,10,06,51,0.00
2008,06,10,06,52,3.20
2008,06,10,06,53,3.20
2008,06,10,06,54,4.80
2008,06,10,06,55,4.80
2008,06,10,06,56,3.20
2008,06,10,06,57,4.80
2008,06,10,06,58,3.20
2008,06,10,06,59,0.00
2008,06,10,07,00,0.00
2008,06,10,07,01,0.00
2008,06,10,07,02,1.60
2008,06,10,07,03,1.60
2008,06,10,07,04,0.00
2008,06,10,07,05,0.00
2008,06,10,07,06,0.00
2008,06,10,07,07,1.60
2008,06,10,07,08,0.00
2008,06,10,07,09,0.00
2008,06,10,07,10,0.00
2008,06,10,07,11,0.00
2008,06,10,07,12,0.00
2008,06,10,07,13,0.00
2008,06,10,07,14,0.00
2008,06,10,07,15,0.00
2008,06,10,07,16,0.00
2008,06,10,07,17,0.00
2008,06,10,07,18,0.00
2008,06,10,07,19,0.00
2008,06,10,07,20,0.00
2008,06,10,07,21,0.00
2008,06,10,07,22,0.00
2008,06,10,07,23,0.00
2008,06,10,07,24,0.00
2008,06,10,07,25,0.00
2008,06,10,07,26,0.00
2008,06,10,07,27,0.00
2008,06,10,07,28,0.00
2008,06,10,07,29,0.00
2008,06,10,07,30,1.60
2008,06,10,07,31,0.00
2008,06,10,07,32,1.60
2008,06,10,07,33,1.60
2008,06,10,07,34,0.00
2008,06,10,07,35,0.00
2008,06,10,07,36,0.00
2008,06,10,07,37,0.00
2008,06,10,07,38,0.00
2008,06,10,07,39,0.00
2008,06,10,07,40,0.00
2008,06,10,07,41,0.00
2008,06,10,07,42,0.00
2008,06,10,07,43,0.00
2008,06,10,07,44,0.00
2008,06,10,07,45,0.00
2008,06,10,07,46,0.00
2008,06,10,07,47,0.00
2008,06,10,07,48,0.00
2008,06,10,07,49,0.00
2008,06,10,07,50,0.00
2008,06,10,07,51,0.00
2008,06,10,07,52,0.00
2008,06,10,07,53,0.00
2008,06,10,07,54,0.00
2008,06,10,07,55,0.00
2008,06,10,07,56,1.60
2008,06,10,07,57,3.20
2008,06,10,07,58,0.00
2008,06,10,07,59,0.00
2008,06,10,08,00,0.00
2008,06,10,08,01,0.00
2008,06,10,08,02,0.00
2008,06,10,08,03,0.00
2008,06,10,08,04,0.00
2008,06,10,08,05,0.00
2008,06,10,08,06,0.00
2008,06,10,08,07,0.00
2008,06,10,08,08,0.00
2008,06,10,08,09,0.00
2008,06,10,08,10,0.00
2008,06,10,08,11,0.00
2008,06,10,08,12,0.00
2008,06,10,08,13,0.00
2008,06,10,08,14,0.00
2008,06,10,08,15,0.00
2008,06,10,08,16,1.60
2008,06,10,08,17,1.60
2008,06,10,08,18,1.60
2008,06,10,08,19,1.60
2008,06,10,08,20,0.00
2008,06,10,08,21,0.00
2008,06,10,08,22,0.00
2008,06,10,08,23,0.00
2008,06,10,08,24,1.60
2008,06,10,08,25,0.00
2008,06,10,08,26,0.00
2008,06,10,08,27,0.00
2008,06,10,08,28,0.00
2008,06,10,08,29,0.00
2008,06,10,08,30,0.00
2008,06,10,08,31,0.00
2008,06,10,08,32,0.00
2008,06,10,08,33,0.00
2008,06,10,08,34,1.60
2008,06,10,08,35,1.60
2008,06,10,08,36,0.00
2008,06,10,08,37,0.00
2008,06,10,08,38,1.60
2008,06,10,08,39,1.60
2008,06,10,08,40,1.60
2008,06,10,08,41,0.00
2008,06,10,08,42,0.00
2008,06,10,08,43,0.00
2008,06,10,08,44,0.00
2008,06,10,08,45,0.00
2008,06,10,08,46,0.00
2008,06,10,08,47,1.60
2008,06,10,08,48,3.20
2008,06,10,08,49,3.20
2008,06,10,08,50,1.60
2008,06,10,08,51,1.60
2008,06,10,08,52,0.00
2008,06,10,08,53,0.00
2008,06,10,08,54,0.00
2008,06,10,08,55,0.00
2008,06,10,08,56,0.00
2008,06,10,08,57,0.00
2008,06,10,08,58,0.00
2008,06,10,08,59,0.00
2008,06,10,09,00,0.00
2008,06,10,09,01,0.00
2008,06,10,09,02,0.00
2008,06,10,09,03,0.00
2008,06,10,09,04,0.00
2008,06,10,09,05,1.60
2008,06,10,09,06,0.00
2008,06,10,09,07,0.00
2008,06,10,09,08,0.00
2008,06,10,09,09,0.00
2008,06,10,09,10,0.00
2008,06,10,09,11,0.00
2008,06,10,09,12,0.00
2008,06,10,09,13,0.00
2008,06,10,09,14,0.00
2008,06,10,09,15,0.00
2008,06,10,09,16,0.00
2008,06,10,09,17,0.00
2008,06,10,09,18,0.00
2008,06,10,09,19,0.00
2008,06,10,09,20,0.00
2008,06,10,09,21,0.00
2008,06,10,09,22,0.00
2008,06,10,09,23,0.00
2008,06,10,09,24,0.00
2008,06,10,09,25,1.60
2008,06,10,09,26,1.60
2008,06,10,09,27,0.00
2008,06,10,09,28,0.00
2008,06,10,09,29,0.00
2008,06,10,09,30,4.80
2008,06,10,09,31,4.80
2008,06,10,09,32,1.60
2008,06,10,09,33,0.00
2008,06,10,09,34,1.60
2008,06,10,09,35,4.80
2008,06,10,09,36,4.80
2008,06,10,09,37,0.00
2008,06,10,09,38,0.00
2008,06,10,09,39,0.00
2008,06,10,09,40,1.60
2008,06,10,09,41,1.60
2008,06,10,09,42,0.00
2008,06,10,09,43,6.40
2008,06,10,09,44,4.80
2008,06,10,09,45,4.80
2008,06,10,09,46,4.80
2008,06,10,09,47,4.80
2008,06,10,09,48,4.80
2008,06,10,09,49,4.80
2008,06,10,09,50,3.20
2008,06,10,09,51,3.20
2008,06,10,09,52,1.60
2008,06,10,09,53,1.60
2008,06,10,09,54,1.60
2008,06,10,09,55,0.00
2008,06,10,09,56,3.20
2008,06,10,09,57,1.60
2008,06,10,09,58,4.80
2008,06,10,09,59,3.20
2008,06,10,10,00,8.10
2008,06,10,10,01,4.80
2008,06,10,10,02,4.80
2008,06,10,10,03,0.00
2008,06,10,10,04,3.20
2008,06,10,10,05,1.60
2008,06,10,10,06,0.00
2008,06,10,10,07,6.40
2008,06,10,10,08,4.80
2008,06,10,10,09,4.80
2008,06,10,10,10,3.20
2008,06,10,10,11,4.80
2008,06,10,10,12,4.80
2008,06,10,10,13,6.40
2008,06,10,10,14,9.60
2008,06,10,10,15,6.40
2008,06,10,10,16,8.10
2008,06,10,10,17,8.10
2008,06,10,10,18,3.20
2008,06,10,10,19,1.60
2008,06,10,10,20,4.80
2008,06,10,10,21,3.20
2008,06,10,10,22,9.60
2008,06,10,10,23,9.60
2008,06,10,10,24,6.40
2008,06,10,10,25,9.60
2008,06,10,10,26,11.30
2008,06,10,10,27,8.10
2008,06,10,10,28,8.10
2008,06,10,10,29,9.60
2008,06,10,10,30,9.60
2008,06,10,10,31,9.60
2008,06,10,10,32,8.10
2008,06,10,10,33,9.60
2008,06,10,10,34,6.40
2008,06,10,10,35,6.40
2008,06,10,10,36,6.40
2008,06,10,10,37,9.60
2008,06,10,10,38,6.40
2008,06,10,10,39,1.60
2008,06,10,10,40,1.60
2008,06,10,10,41,1.60
2008,06,10,10,42,4.80
2008,06,10,10,43,8.10
2008,06,10,10,44,8.10
2008,06,10,10,45,1.60
2008,06,10,10,46,4.80
2008,06,10,10,47,3.20
2008,06,10,10,48,3.20
2008,06,10,10,49,4.80
2008,06,10,10,50,3.20
2008,06,10,10,51,8.10
2008,06,10,10,52,9.60
2008,06,10,10,53,6.40
2008,06,10,10,54,4.80
2008,06,10,10,55,4.80
2008,06,10,10,56,4.80
2008,06,10,10,57,4.80
2008,06,10,10,58,8.10
2008,06,10,10,59,9.60
2008,06,10,11,00,4.80
2008,06,10,11,01,6.40
2008,06,10,11,02,4.80
2008,06,10,11,03,4.80
2008,06,10,11,04,8.10
2008,06,10,11,05,6.40
2008,06,10,11,06,3.20
2008,06,10,11,07,6.40
2008,06,10,11,08,4.80
2008,06,10,11,09,8.10
2008,06,10,11,10,9.60
2008,06,10,11,11,8.10
2008,06,10,11,12,11.30
2008,06,10,11,13,9.60
2008,06,10,11,14,6.40
2008,06,10,11,15,11.30
2008,06,10,11,16,9.60
2008,06,10,11,17,6.40
2008,06,10,11,18,8.10
2008,06,10,11,19,11.30
2008,06,10,11,20,11.30
2008,06,10,11,21,6.40
2008,06,10,11,22,8.10
2008,06,10,11,23,9.60
2008,06,10,11,24,8.10
2008,06,10,11,25,11.30
2008,06,10,11,26,9.60
2008,06,10,11,27,9.60
2008,06,10,11,28,11.30
2008,06,10,11,29,6.40
2008,06,10,11,30,12.90
2008,06,10,11,31,9.60
2008,06,10,11,32,12.90
2008,06,10,11,33,14.50
2008,06,10,11,34,11.30
2008,06,10,11,35,14.50
2008,06,10,11,36,11.30
2008,06,10,11,37,9.60
2008,06,10,11,38,12.90
2008,06,10,11,39,8.10
2008,06,10,11,40,9.60
2008,06,10,11,41,8.10
2008,06,10,11,42,6.40
2008,06,10,11,43,9.60
2008,06,10,11,44,9.60
2008,06,10,11,45,11.30
2008,06,10,11,46,9.60
2008,06,10,11,47,9.60
2008,06,10,11,48,9.60
2008,06,10,11,49,8.10
2008,06,10,11,50,11.30
2008,06,10,11,51,9.60
2008,06,10,11,52,8.10
2008,06,10,11,53,9.60
2008,06,10,11,54,9.60
2008,06,10,11,55,9.60
2008,06,10,11,56,11.30
2008,06,10,11,57,9.60
2008,06,10,11,58,9.60
2008,06,10,11,59,8.10
2008,06,10,12,00,9.60
2008,06,10,12,01,9.60
2008,06,10,12,02,11.30
2008,06,10,12,03,9.60
2008,06,10,12,04,8.10
2008,06,10,12,05,6.40
2008,06,10,12,06,11.30
2008,06,10,12,07,9.60
2008,06,10,12,08,9.60
2008,06,10,12,09,11.30
2008,06,10,12,10,8.10
2008,06,10,12,11,3.20
2008,06,10,12,12,4.80
2008,06,10,12,13,6.40
2008,06,10,12,14,6.40
2008,06,10,12,15,4.80
2008,06,10,12,16,6.40
2008,06,10,12,17,9.60
2008,06,10,12,18,9.60
2008,06,10,12,19,9.60
2008,06,10,12,20,4.80
2008,06,10,12,21,8.10
2008,06,10,12,22,9.60
2008,06,10,12,23,8.10
2008,06,10,12,24,8.10
2008,06,10,12,25,8.10
2008,06,10,12,26,8.10
2008,06,10,12,27,8.10
2008,06,10,12,28,9.60
2008,06,10,12,29,8.10
2008,06,10,12,30,8.10
2008,06,10,12,31,8.10
2008,06,10,12,32,3.20
2008,06,10,12,33,9.60
2008,06,10,12,34,8.10
2008,06,10,12,35,8.10
2008,06,10,12,36,11.30
2008,06,10,12,37,11.30
2008,06,10,12,38,12.90
2008,06,10,12,39,16.10
2008,06,10,12,40,8.10
2008,06,10,12,41,9.60
2008,06,10,12,42,11.30
2008,06,10,12,43,16.10
2008,06,10,12,44,8.10
2008,06,10,12,45,6.40
2008,06,10,12,46,6.40
2008,06,10,12,47,6.40
2008,06,10,12,48,6.40
2008,06,10,12,49,9.60
2008,06,10,12,50,9.60
2008,06,10,12,51,14.50
2008,06,10,12,52,6.40
2008,06,10,12,53,11.30
2008,06,10,12,54,11.30
2008,06,10,12,55,4.80
2008,06,10,12,56,4.80
2008,06,10,12,57,11.30
2008,06,10,12,58,12.90
2008,06,10,12,59,9.60
2008,06,10,13,00,8.10
2008,06,10,13,01,6.40
2008,06,10,13,02,6.40
2008,06,10,13,03,8.10
2008,06,10,13,04,9.60
2008,06,10,13,05,8.10
2008,06,10,13,06,4.80
2008,06,10,13,07,8.10
2008,06,10,13,08,9.60
2008,06,10,13,09,11.30
2008,06,10,13,10,6.40
2008,06,10,13,11,11.30
2008,06,10,13,12,11.30
2008,06,10,13,13,12.90
2008,06,10,13,14,16.10
2008,06,10,13,15,12.90
2008,06,10,13,16,9.60
2008,06,10,13,17,16.10
2008,06,10,13,18,9.60
2008,06,10,13,19,6.40
2008,06,10,13,20,11.30
2008,06,10,13,21,8.10
2008,06,10,13,22,16.10
2008,06,10,13,23,14.50
2008,06,10,13,24,9.60
2008,06,10,13,25,14.50
2008,06,10,13,26,9.60
2008,06,10,13,27,9.60
2008,06,10,13,28,8.10
2008,06,10,13,29,11.30
2008,06,10,13,30,12.90
2008,06,10,13,31,11.30
2008,06,10,13,32,9.60
2008,06,10,13,33,8.10
2008,06,10,13,34,9.60
2008,06,10,13,35,11.30
2008,06,10,13,36,8.10
2008,06,10,13,37,11.30
2008,06,10,13,38,8.10
2008,06,10,13,39,12.90
2008,06,10,13,40,14.50
2008,06,10,13,41,14.50
2008,06,10,13,42,14.50
2008,06,10,13,43,9.60
2008,06,10,13,44,4.80
2008,06,10,13,45,8.10
2008,06,10,13,46,14.50
2008,06,10,13,47,14.50
2008,06,10,13,48,16.10
2008,06,10,13,49,14.50
2008,06,10,13,50,11.30
2008,06,10,13,51,11.30
2008,06,10,13,52,9.60
2008,06,10,13,53,9.60
2008,06,10,13,54,11.30
2008,06,10,13,55,11.30
2008,06,10,13,56,9.60
2008,06,10,13,57,14.50
2008,06,10,13,58,12.90
2008,06,10,13,59,9.60
2008,06,10,14,00,11.30
2008,06,10,14,01,11.30
2008,06,10,14,02,14.50
2008,06,10,14,03,16.10
2008,06,10,14,04,17.70
2008,06,10,14,05,11.30
2008,06,10,14,06,9.60
2008,06,10,14,07,11.30
2008,06,10,14,08,8.10
2008,06,10,14,09,9.60
2008,06,10,14,10,14.50
2008,06,10,14,11,11.30
2008,06,10,14,12,11.30
2008,06,10,14,13,14.50
2008,06,10,14,14,16.10
2008,06,10,14,15,17.70
2008,06,10,14,16,17.70
2008,06,10,14,17,9.60
2008,06,10,14,18,6.40
2008,06,10,14,19,6.40
2008,06,10,14,20,9.60
2008,06,10,14,21,14.50
2008,06,10,14,22,6.40
2008,06,10,14,23,4.80
2008,06,10,14,24,16.10
2008,06,10,14,25,11.30
2008,06,10,14,26,11.30
2008,06,10,14,27,12.90
2008,06,10,14,28,12.90
2008,06,10,14,29,17.70
2008,06,10,14,30,14.50
2008,06,10,14,31,9.60
2008,06,10,14,32,8.10
2008,06,10,14,33,12.90
2008,06,10,14,34,11.30
2008,06,10,14,35,11.30
2008,06,10,14,36,8.10
2008,06,10,14,37,8.10
2008,06,10,14,38,6.40
2008,06,10,14,39,12.90
2008,06,10,14,40,19.30
2008,06,10,14,41,19.30
2008,06,10,14,42,14.50
2008,06,10,14,43,17.70
2008,06,10,14,44,11.30
2008,06,10,14,45,11.30
2008,06,10,14,46,11.30
2008,06,10,14,47,14.50
2008,06,10,14,48,11.30
2008,06,10,14,49,9.60
2008,06,10,14,50,8.10
2008,06,10,14,51,16.10
2008,06,10,14,52,12.90
2008,06,10,14,53,8.10
2008,06,10,14,54,8.10
2008,06,10,14,55,14.50
2008,06,10,14,56,8.10
2008,06,10,14,57,8.10
2008,06,10,14,58,11.30
2008,06,10,14,59,14.50
2008,06,10,15,00,8.10
2008,06,10,15,01,8.10
2008,06,10,15,02,16.10
2008,06,10,15,03,17.70
2008,06,10,15,04,17.70
2008,06,10,15,05,11.30
2008,06,10,15,06,8.10
2008,06,10,15,07,9.60
2008,06,10,15,08,9.60
2008,06,10,15,09,4.80
2008,06,10,15,10,11.30
2008,06,10,15,11,9.60
2008,06,10,15,12,11.30
2008,06,10,15,13,8.10
2008,06,10,15,14,8.10
2008,06,10,15,15,11.30
2008,06,10,15,16,8.10
2008,06,10,15,17,16.10
2008,06,10,15,18,17.70
2008,06,10,15,19,16.10
2008,06,10,15,20,9.60
2008,06,10,15,21,11.30
2008,06,10,15,22,9.60
2008,06,10,15,23,12.90
2008,06,10,15,24,9.60
2008,06,10,15,25,14.50
2008,06,10,15,26,9.60
2008,06,10,15,27,11.30
2008,06,10,15,28,11.30
2008,06,10,15,29,16.10
2008,06,10,15,30,14.50
2008,06,10,15,31,16.10
2008,06,10,15,32,9.60
2008,06,10,15,33,11.30
2008,06,10,15,34,16.10
2008,06,10,15,35,16.10
2008,06,10,15,36,8.10
2008,06,10,15,37,9.60
2008,06,10,15,38,8.10
2008,06,10,15,39,9.60
2008,06,10,15,40,8.10
2008,06,10,15,41,9.60
2008,06,10,15,42,8.10
2008,06,10,15,43,6.40
2008,06,10,15,44,11.30
2008,06,10,15,45,8.10
2008,06,10,15,46,3.20
2008,06,10,15,47,9.60
2008,06,10,15,48,9.60
2008,06,10,15,49,12.90
2008,06,10,15,50,8.10
2008,06,10,15,51,9.60
2008,06,10,15,52,14.50
2008,06,10,15,53,11.30
2008,06,10,15,54,4.80
2008,06,10,15,55,4.80
2008,06,10,15,56,6.40
2008,06,10,15,57,11.30
2008,06,10,15,58,9.60
2008,06,10,15,59,9.60
2008,06,10,16,00,9.60
2008,06,10,16,01,9.60
2008,06,10,16,02,11.30
2008,06,10,16,03,6.40
2008,06,10,16,04,9.60
2008,06,10,16,05,6.40
2008,06,10,16,06,8.10
2008,06,10,16,07,6.40
2008,06,10,16,08,8.10
2008,06,10,16,09,8.10
2008,06,10,16,10,9.60
2008,06,10,16,11,8.10
2008,06,10,16,12,11.30
2008,06,10,16,13,9.60
2008,06,10,16,14,9.60
2008,06,10,16,15,11.30
2008,06,10,16,16,9.60
2008,06,10,16,17,9.60
2008,06,10,16,18,16.10
2008,06,10,16,19,9.60
2008,06,10,16,20,16.10
2008,06,10,16,21,6.40
2008,06,10,16,22,4.80
2008,06,10,16,23,9.60
2008,06,10,16,24,14.50
2008,06,10,16,25,9.60
2008,06,10,16,26,9.60
2008,06,10,16,27,8.10
2008,06,10,16,28,9.60
2008,06,10,16,29,9.60
2008,06,10,16,30,4.80
2008,06,10,16,31,11.30
2008,06,10,16,32,8.10
2008,06,10,16,33,8.10
2008,06,10,16,34,8.10
2008,06,10,16,35,6.40
2008,06,10,16,36,6.40
2008,06,10,16,37,6.40
2008,06,10,16,38,8.10
2008,06,10,16,39,8.10
2008,06,10,16,40,6.40
2008,06,10,16,41,6.40
2008,06,10,16,42,8.10
2008,06,10,16,43,12.90
2008,06,10,16,44,11.30
2008,06,10,16,45,11.30
2008,06,10,16,46,8.10
2008,06,10,16,47,6.40
2008,06,10,16,48,11.30
2008,06,10,16,49,11.30
2008,06,10,16,50,11.30
2008,06,10,16,51,11.30
2008,06,10,16,52,9.60
2008,06,10,16,53,6.40
2008,06,10,16,54,9.60
2008,06,10,16,55,9.60
2008,06,10,16,56,9.60
2008,06,10,16,57,4.80
2008,06,10,16,58,8.10
2008,06,10,16,59,12.90
2008,06,10,17,00,12.90
2008,06,10,17,01,11.30
2008,06,10,17,02,8.10
2008,06,10,17,03,6.40
2008,06,10,17,04,14.50
2008,06,10,17,05,17.70
2008,06,10,17,06,11.30
2008,06,10,17,07,9.60
2008,06,10,17,08,8.10
2008,06,10,17,09,6.40
2008,06,10,17,10,9.60
2008,06,10,17,11,9.60
2008,06,10,17,12,6.40
2008,06,10,17,13,9.60
2008,06,10,17,14,11.30
2008,06,10,17,15,11.30
2008,06,10,17,16,14.50
2008,06,10,17,17,14.50
2008,06,10,17,18,12.90
2008,06,10,17,19,11.30
2008,06,10,17,20,14.50
2008,06,10,17,21,11.30
2008,06,10,17,22,8.10
2008,06,10,17,23,9.60
2008,06,10,17,24,9.60
2008,06,10,17,25,8.10
2008,06,10,17,26,11.30
2008,06,10,17,27,8.10
2008,06,10,17,28,9.60
2008,06,10,17,29,4.80
2008,06,10,17,30,3.20
2008,06,10,17,31,4.80
2008,06,10,17,32,6.40
2008,06,10,17,33,8.10
2008,06,10,17,34,8.10
2008,06,10,17,35,4.80
2008,06,10,17,36,6.40
2008,06,10,17,37,4.80
2008,06,10,17,38,6.40
2008,06,10,17,39,4.80
2008,06,10,17,40,8.10
2008,06,10,17,41,8.10
2008,06,10,17,42,3.20
2008,06,10,17,43,3.20
2008,06,10,17,44,8.10
2008,06,10,17,45,8.10
2008,06,10,17,46,8.10
2008,06,10,17,47,8.10
2008,06,10,17,48,11.30
2008,06,10,17,49,6.40
2008,06,10,17,50,4.80
2008,06,10,17,51,6.40
2008,06,10,17,52,6.40
2008,06,10,17,53,8.10
2008,06,10,17,54,3.20
2008,06,10,17,55,6.40
2008,06,10,17,56,8.10
2008,06,10,17,57,8.10
2008,06,10,17,58,9.60
2008,06,10,17,59,9.60